Regional Weather Roundup
Issued by NWS

Home | Current Version | Previous Version | Text Only | Print | Product List | Glossary Off
Versions: 1 2 3 4 5 6 7 8 9 10 11 12 13 14 15 16 17 18 19 20 21 22 23 24 25 26 27 28 29 30 31 32 33 34 35 36 37 38 39 40 41 42 43 44 45 46 47 48 49 50

000
ASUS43 KFSD 062202
RWRSD

WEATHER ROUNDUP FOR SOUTH DAKOTA
NATIONAL WEATHER SERVICE SIOUX FALLS SD
500 PM CDT WED MAY 06 2015

NOTE: "FAIR" INDICATES FEW OR NO CLOUDS BELOW 12,000 FEET WITH NO
SIGNIFICANT WEATHER AND/OR OBSTRUCTIONS TO VISIBILITY.


SDZ001>005-009-010-012>017-062300-
NORTHWEST AND NORTH CENTRAL SOUTH DAKOTA

CITY           SKY/WX    TMP DP  RH WIND       PRES   REMARKS
BUFFALO          N/A     56  52  86 NW25G32   29.60S
FAITH            N/A     64  56  75 E14       29.60F
MOBRIDGE       CLOUDY    70  59  68 SE15      29.58F
$$

SDZ012>016-024>037-041>051-057-063-072>074-062300-
SOUTHWEST AND SOUTH CENTRAL SOUTH DAKOTA

CITY           SKY/WX    TMP DP  RH WIND       PRES   REMARKS
RAPID CTY ARPT LGT RAIN  62  56  80 E5        29.59F
PIERRE         LGT RAIN  65  58  78 SE14      29.58F
CUSTER         LGT RAIN  53  50  89 N5        29.68S
ELLSWORTH AFB  CLOUDY    67  53  61 NW21      29.58F
PHILIP         LGT RAIN  60  58  92 S7        29.59F
PINE RIDGE     CLOUDY    63  54  72 SE8       29.58F
WINNER         LGT RAIN  65  55  70 S23       29.62S
$$

SDZ004>011-016>023-039-040-062300-
NORTHEAST SOUTH DAKOTA

CITY           SKY/WX    TMP DP  RH WIND       PRES   REMARKS
ABERDEEN       LGT RAIN  65  61  87 S21G31    29.63F FOG
WATERTOWN      PTSUNNY   67  59  75 S20G33    29.69F
BROOKINGS      PTSUNNY   68  63  83 S17G24    29.72F
SISSETON         N/A     65  63  93 S14G26    29.67F
$$

SDZ017-020-022-023-036>040-048>070-062300-
SOUTHEAST SOUTH DAKOTA

CITY           SKY/WX    TMP DP  RH WIND       PRES   REMARKS
SIOUX FALLS    CLOUDY    69  60  73 S25G40    29.72F
HURON          PTSUNNY   71  63  75 S10       29.63F
MITCHELL       MOSUNNY   73  60  63 S22G31    29.64F
YANKTON        PTSUNNY   68  61  77 SE22      29.69F
$$

ABBREVIATIONS USED IN REMARKS
   TC - TEMPERATURE IN CELSIUS
  WCI - WIND CHILL INDEX
   HX - HEAT INDEX
  VSB - VISIBILITY




USA.gov is the U.S. government's official web portal to all federal, state and local government web resources and services.